Regional Weather Roundup
Issued by NWS Goodland, KS

Home | Current Version | Previous Version | Graphics & Text | Print | Product List | Glossary On
Versions: 1 2 3 4 5 6 7 8 9 10 11 12 13 14 15 16 17 18 19 20 21 22 23 24 25 26 27 28 29 30 31 32 33 34 35 36 37 38 39 40 41 42 43 44 45 46 47 48 49 50
000
ASUS43 KGLD 182259
RWRGLD

GOODLAND FORECAST AREA HOURLY WEATHER ROUNDUP
NATIONAL WEATHER SERVICE GOODLAND KS
500 PM MDT FRI APR 18 2014

...OFFICIAL OBSERVATIONS...

CITY           SKY/WX    TMP DP  RH WIND       PRES   REMARKS
GOODLAND KS    SUNNY     75  39  27 S28G33    29.91F
HILL CITY KS   SUNNY     74  41  30 S23G31    29.97F
IMPERIAL NEB   MOSUNNY   77  36  22 S25G33    29.85F
MCCOOK NEB     MOSUNNY   72  44  36 S23G36    29.92F
AKRON CO       SUNNY     77  24  14 S18G25    29.87F
BURLINGTON CO  SUNNY     76  33  21 S22       29.91F
LIMON CO       MOSUNNY   74  24  15 S21G30    29.91F
$$

...UNOFFICIAL OBSERVATIONS...

CITY           SKY/WX    TMP DP  RH WIND       PRES   REMARKS
COLBY KS       SUNNY     73  46  38 S22G32    29.95S
LENORA KS        N/A     70  32  24 S26         N/A
LEOTI KS         N/A     72  32  22 S16         N/A
NORTON KS      SUNNY     72  41  33 S21G32    29.94F
SHARON SPRINGS   N/A     74  44  33 S26         N/A
WAKEENEY KS      N/A     72  38  29 MISG        N/A
KIT CARSON CO    N/A     76  35  23 MISG        N/A
$$



USA.gov is the U.S. government's official web portal to all federal, state and local government web resources and services.